This is the latest recevied weather packets stored in our database for station/object K1RFS. If no packets are shown the sender has not sent any weather packets the latest 10 day(s).
| Time | Temp. | Humidity | Pressure | Rain* | Wind** | Luminosity | Snow |
|---|---|---|---|---|---|---|---|
| 1788344334 | 17.22° C | 53% | 1000.4 hPa | 0 mm | - | 0 W/m² | - |
| 1788344028 | 17.78° C | 52% | 1000.5 hPa | 0 mm | - | 0 W/m² | - |
| 1788343728 | 18.33° C | 51% | 1000.7 hPa | 0 mm | - | 0 W/m² | - |
| 1788343422 | 18.33° C | 50% | 1000.7 hPa | 0 mm | - | 0 W/m² | - |
| 1788343117 | 18.89° C | 51% | 1000.6 hPa | 0 mm | - | 0 W/m² | - |
| 1788342811 | 18.89° C | 51% | 1000.7 hPa | 0 mm | - | 0 W/m² | - |
| 1788342511 | 18.89° C | 51% | 1000.8 hPa | 0 mm | - | 0 W/m² | - |
| 1788342207 | 18.33° C | 50% | 1000.8 hPa | 0 mm | - | 0 W/m² | - |
| 1788341907 | 18.33° C | 49% | 1000.8 hPa | 0 mm | - | 0 W/m² | - |
| 1788341602 | 17.78° C | 50% | 1000.5 hPa | 0 mm | - | 0 W/m² | - |
| 1788341301 | 17.78° C | 50% | 1000.7 hPa | 0 mm | - | 0 W/m² | - |
| 1788340997 | 18.33° C | 49% | 1000.7 hPa | 0 mm | - | 0 W/m² | - |
| 1788340697 | 18.33° C | 49% | 1000.7 hPa | 0 mm | - | 0 W/m² | - |
| 1788340392 | 18.89° C | 47% | 1000.8 hPa | 0 mm | - | 0 W/m² | - |
| 1788340089 | 18.89° C | 47% | 1000.7 hPa | 0 mm | - | 0 W/m² | - |
| 1788339788 | 18.33° C | 48% | 1000.7 hPa | 0 mm | - | 0 W/m² | - |
| 1788339487 | 18.33° C | 50% | 1000.6 hPa | 0 mm | - | 0 W/m² | - |
| 1788339182 | 18.89° C | 49% | 1000.8 hPa | 0 mm | - | 0 W/m² | - |
| 1788338879 | 18.89° C | 49% | 1000.7 hPa | 0 mm | - | 0 W/m² | - |
| 1788338575 | 18.89° C | 49% | 1000.7 hPa | 0 mm | - | 0 W/m² | - |
| 1788338270 | 18.89° C | 50% | 1000.8 hPa | 0 mm | - | 0 W/m² | - |
| 1788337969 | 18.33° C | 53% | 1000.8 hPa | 0 mm | - | 0 W/m² | - |
| 1788337664 | 18.33° C | 54% | 1000.7 hPa | 0 mm | - | 0 W/m² | - |
| 1788337361 | 18.33° C | 54% | 1000.7 hPa | 0 mm | - | 0 W/m² | - |
| 1788337057 | 18.89° C | 53% | 1000.8 hPa | 0 mm | - | 0 W/m² | - |
* Rain latest hour (hover to see other rain measurements)
** Current wind speed in m/s (hover to see current wind gust speed)